Weather History for KBNO - March, 2013

Change the Weather History Date:

Friday, March 22, 2013

  Actual Average Record
Temperature  
Mean Temperature 26 °F 39 °F  
Max Temperature 37 °F 51 °F 71 °F (1960)
Min Temperature 15 °F 27 °F 11 °F (1952)
Degree Days  
Heating Degree Days 39 26  
Month to date heating degree days 615 632  
Since 1 July heating degree days 5972 6160  
Cooling Degree Days 0 0  
Month to date cooling degree days 0 0  
Year to date cooling degree days 0 0  
Moisture  
Dew Point 15 °F    
Average Humidity 65    
Maximum Humidity 88    
Minimum Humidity 41    
Precipitation  
Precipitation T in 0.04 in 0.39 in (2005)
Month to date precipitation 0.18 0.80  
Year to date precipitation 0.92 3.01  
Sea Level Pressure  
Sea Level Pressure 30.17 in    
Wind  
Wind Speed 11 mph (West)    
Max Wind Speed 25 mph    
Max Gust Speed 31 mph    
Visibility 9 miles    
Events Snow    
T = Trace of Precipitation, MM = Missing Value Source: NWS Daily Summary

Daily Weather History Graph

Daily Weather History Graph

Search for Another Location

Airport or City:

Trip Planner

Search our weather history database for the weather conditions in past years. The results will help you decide how hot, cold, wet, or windy it might be!

Date:

Astronomy

Mar. 22, 2013 Rise Set
Actual Time 6:54 AM PDT 7:11 PM PDT
Civil Twilight 6:26 AM PDT 7:39 PM PDT
Nautical Twilight 5:52 AM PDT 8:13 PM PDT
Astronomical Twilight 5:18 AM PDT 8:47 PM PDT
Moon 2:35 PM PDT (3/22) 4:05 AM PDT (3/22)
Length of Visible Light 13h 13m
Length of Day
12h 16m
Waxing Gibbous, 78% of the Moon is Illuminated
Mar 22
Waxing Gibbous
Mar 27
Full
Apr 2
Last Quarter
Apr 10
New
Apr 18
First Quarter

Hourly Weather History & Observations

Time (PDT) Temp. Windchill Dew Point Humidity Pressure Visibility Wind Dir Wind Speed Gust Speed Precip Events Conditions
12:53 AM 27.0 °F 15.2 °F 16.0 °F 63% 30.12 in 10.0 mi West 15.0 mph - N/A   Scattered Clouds
1:53 AM 26.1 °F 14.0 °F 16.0 °F 66% 30.11 in 10.0 mi West 15.0 mph - N/A   Clear
2:53 AM 24.1 °F 13.1 °F 16.0 °F 71% 30.12 in 10.0 mi West 11.5 mph - N/A   Clear
3:53 AM 24.1 °F 11.5 °F 15.1 °F 69% 30.11 in 10.0 mi West 15.0 mph - N/A   Clear
4:53 AM 21.9 °F 12.5 °F 15.1 °F 75% 30.13 in 10.0 mi WNW 8.1 mph - N/A   Clear
5:53 AM 19.9 °F 9.3 °F 15.1 °F 81% 30.14 in 10.0 mi WSW 9.2 mph - N/A   Clear
6:53 AM 21.0 °F 11.4 °F 17.1 °F 85% 30.16 in 10.0 mi West 8.1 mph - N/A   Clear
7:53 AM 21.0 °F 16.2 °F 17.1 °F 85% 30.18 in 10.0 mi SE 3.5 mph - N/A   Partly Cloudy
8:53 AM 27.0 °F 16.7 °F 17.1 °F 66% 30.17 in 4.0 mi WNW 11.5 mph - 0.00 in Snow Light Snow
9:53 AM 30.0 °F 18.7 °F 14.0 °F 51% 30.17 in 10.0 mi West 16.1 mph 21.9 mph 0.00 in   Scattered Clouds
10:53 AM 30.0 °F 20.0 °F 10.0 °F 43% 30.17 in 10.0 mi WNW 12.7 mph 24.2 mph N/A   Mostly Cloudy
11:53 AM 30.0 °F 17.9 °F 15.1 °F 54% 30.18 in 9.0 mi WSW 18.4 mph 27.6 mph 0.00 in   Overcast
12:22 PM 30.2 °F 17.1 °F 12.2 °F 47% 30.10 in 10.0 mi NW 21.9 mph 25.3 mph N/A   Mostly Cloudy
12:41 PM 30.2 °F 20.8 °F 17.6 °F 60% 30.10 in 2.0 mi WNW 11.5 mph - 0.00 in Snow Light Snow
12:50 PM 33.8 °F 22.5 °F 12.2 °F 41% 30.09 in 9.0 mi WNW 19.6 mph 26.5 mph 0.00 in   Scattered Clouds
12:53 PM 33.1 °F 21.5 °F 12.9 °F 43% 30.16 in 10.0 mi WNW 19.6 mph 25.3 mph 0.00 in   Partly Cloudy
1:53 PM 37.0 °F 27.4 °F 17.1 °F 44% 30.14 in 10.0 mi NW 17.3 mph 26.5 mph 0.00 in   Mostly Cloudy
2:47 PM 28.4 °F 17.0 °F 19.4 °F 69% 30.10 in 1.8 mi West 15.0 mph 27.6 mph 0.00 in Snow Light Snow
2:53 PM 28.9 °F 21.1 °F 19.0 °F 67% 30.18 in 2.0 mi SW 8.1 mph - 0.00 in Snow Light Snow
3:01 PM 33.8 °F 27.7 °F 19.4 °F 56% 30.08 in 9.0 mi SW 6.9 mph - 0.00 in   Overcast
3:23 PM 30.2 °F 18.9 °F 8.6 °F 40% 30.09 in 10.0 mi West 16.1 mph 25.3 mph 0.00 in   Mostly Cloudy
3:53 PM 35.1 °F 24.8 °F 12.9 °F 40% 30.16 in 10.0 mi West 17.3 mph 25.3 mph 0.00 in   Scattered Clouds
4:53 PM 33.1 °F 21.9 °F 14.0 °F 46% 30.19 in 10.0 mi WNW 18.4 mph 24.2 mph N/A   Partly Cloudy
5:53 PM 30.9 °F 21.2 °F 17.1 °F 57% 30.21 in 10.0 mi WSW 12.7 mph - N/A   Partly Cloudy
6:53 PM 28.0 °F 20.8 °F 18.0 °F 66% 30.23 in 10.0 mi West 6.9 mph - N/A   Partly Cloudy
7:53 PM 26.1 °F 16.2 °F 18.0 °F 71% 30.26 in 10.0 mi WNW 10.4 mph - N/A   Mostly Cloudy
8:53 PM 21.9 °F 15.7 °F 16.0 °F 78% 30.28 in 10.0 mi West 4.6 mph - N/A   Clear
9:53 PM 19.9 °F 13.4 °F 15.1 °F 81% 30.29 in 10.0 mi West 4.6 mph - N/A   Clear
10:53 PM 18.0 °F 6.9 °F 14.0 °F 84% 30.31 in 10.0 mi SW 9.2 mph - N/A   Clear
11:53 PM 16.0 °F 6.3 °F 12.0 °F 84% 30.32 in 10.0 mi SW 6.9 mph - N/A   Clear